KBJCKMYL

Guest
Details From KBJC - Jeffco
To KMYL - Mc Call Muni
Flight Number -
Tags Decoded
Created
Modified
Stats Distance 571 nm / 1,058 km
Max Altitude 0 ft / 0 m
Waypoints 3
Social Downloads 0
Likes 0
Share VATSIM

Download

Looking for another format? Having issues loading an existing format? Contact us
Advertisement - Login to hide

Notes

Decoded

Route

KBJC OTAYI KMYL

ID Type Via Altitude Latitude Longitude Leg Dist Tot Dist Heading (true) Name
O KBJC APT - 0 ft / 0 m 39.90587˚ -105.11809˚ - 0 nm - Rocky Mountain Metropolitan Airport
OTAYI FIX - 0 ft / 0 m 42.27800˚ -110.00283˚ 262 nm 262 nm 304° / 301° -
O KMYL APT - 0 ft / 0 m 44.89702˚ -116.10202˚ 308 nm 571 nm 303° / 299° -

Altitude Profile

Advertisement - Login to hide

Weather


0- 5 10 15 20 25 30 35+ Temperature / ° C

Clouds and Precipitation
Forecast for 2018-05-25 00:00 UTC. Updated an hour ago

Ground ~20,000 ft ~40,000 ft Winds

KBJC

Details ICAO KBJC (BJC)
Name Rocky Mountain Metropolitan Airport
Region United States
Timezone America/Denver (UTC-6.0)
Stats Elevation 5,670 ft / 1,728 m (AMSL)
Location 39.909018° -105.116968°
Runways 3
Magnetic Variation 8.252° E

METAR

KBJC 242345Z 00000KT 50SM SCT140 BKN200 28/M02 A3007

Decode

TAF

KBJC 242328Z 2500/2524 VRB06KT P6SM SCT150 BKN200 FM250500 28006KT P6SM FEW150 FM251400 VRB05KT P6SM FEW200

Decode

Departure Runways

ID Width Length Bearing (true) Bearing (mag) Surface Threshold Offset Overrun Length
02 75 ft / 23 m 3,601 ft / 1,098 m 34.18° 25.93° Asphalt 0 ft / 0 m 0 ft / 0 m
11L 100 ft / 30 m 8,990 ft / 2,740 m 124.39° 116.14° Asphalt 0 ft / 0 m 0 ft / 0 m
11R 75 ft / 23 m 6,995 ft / 2,132 m 124.39° 116.14° Asphalt 0 ft / 0 m 0 ft / 0 m
20 75 ft / 23 m 3,601 ft / 1,098 m 214.18° 205.93° Asphalt 0 ft / 0 m 0 ft / 0 m
29L 75 ft / 23 m 6,995 ft / 2,132 m 304.40° 296.15° Asphalt 0 ft / 0 m 0 ft / 0 m
29R 100 ft / 30 m 8,990 ft / 2,740 m 304.41° 296.16° Asphalt 0 ft / 0 m 0 ft / 0 m

KMYL

Details ICAO KMYL (MYL)
Name Mc Call Muni
Region United States
Timezone America/Boise (UTC-6.0)
Stats Elevation 5,020 ft / 1,530 m (AMSL)
Location 44.888738° -116.101747°
Runways 1
Magnetic Variation 13.531° E

METAR

KMYL 242351Z AUTO 36009KT 10SM -RA BKN050 BKN060 OVC075 15/12 A3006 RMK AO2 SLP153 P0001 60003 T01500117 10206 20150 55003

Decode

TAF

TAF KMYL 242334Z 2500/2524 VRB06KT P6SM VCSH BKN050 FM250100 VRB04KT P6SM BKN150 FM252200 VRB04KT P6SM -SHRA VCTS OVC050CB

Decode

Destination Runways

ID Width Length Bearing (true) Bearing (mag) Surface Threshold Offset Overrun Length
16 75 ft / 23 m 6,113 ft / 1,863 m 178.61° 165.08° Asphalt 0 ft / 0 m 56 ft / 17 m
34 75 ft / 23 m 6,113 ft / 1,863 m 358.61° 345.08° Asphalt 0 ft / 0 m 0 ft / 0 m

Popular Alternatives